Location: Rounton
(54.4000°N, 1.3500°W)
Time: 05:25:43
(UTC+00:00)

A-11 Canister half - Pass Details

Date: 01 December 2021
Orbit: 1516 x 1684 km, 47.2° (Epoch: 21 January)

Event Time Altitude Azimuth Distance (km) Brightness Sun altitude
Rises 14:34:01 0° 285° (WNW) 4,916 12.0 6.4°
Reaches altitude 10° 14:37:55 10° 273° (W) 3,939 11.7 6.1°
Maximum altitude 14:45:24 24° 224° (SW) 2,961 12.2 5.4°
Drops below altitude 10° 14:52:54 10° 176° (S) 3,933 11.9 4.7°
Sets 14:56:49 0° 163° (SSE) 4,906 12.1 4.3°
